Regional Weather Roundup
Issued by NWS

Home | Current Version | Previous Version | Text Only | Print | Product List | Glossary On
Versions: 1 2 3 4 5 6 7 8 9 10 11 12 13 14 15 16 17 18 19 20 21 22 23 24 25 26 27 28 29 30 31 32 33 34 35 36 37 38 39 40 41 42 43 44 45 46 47 48 49 50
000
ASUS43 KLMK 031910
RWRKY
KENTUCKY REGIONAL WEATHER ROUNDUP
NATIONAL WEATHER SERVICE LOUISVILLE KY
200 PM EST SAT DEC 03 2016

NOTE "FAIR" INDICATES FEW OR NO CLOUDS BELOW 12,000 FEET
WITH NO SIGNIFICANT WEATHER AND/OR OBSTRUCTIONS TO VISIBILITY.

KYZ001>023-026-027-061>063-070>075-032000-
WESTERN AND SOUTH CENTRAL KENTUCKY

CITY           SKY/WX    TMP DP  RH WIND       PRES   REMARKS
PADUCAH        PTSUNNY   44  29  55 E12       30.32F
HENDERSON      CLOUDY    45  28  53 NE6       30.33F
OWENSBORO      CLOUDY    44  29  55 NE7       30.34F
HOPKINSVILLE   CLOUDY    42  31  64 E5        30.32F
BOWLING GREEN  PTSUNNY   44  32  62 E7        30.33F
GLASGOW        CLOUDY    42  32  67 E6        30.32F
$$

KYZ024-025-028>034-038-045-046-053-032000-
NORTH CENTRAL KENTUCKY

CITY           SKY/WX    TMP DP  RH WIND       PRES   REMARKS
LOUISVILLE/SDF CLOUDY    45  26  47 NW6       30.34F
LOUISVILLE/LOU CLOUDY    44  28  53 NW3       30.35F
FORT KNOX      CLOUDY    43  28  55 N5        30.31F
$$

KYZ035>037-039>044-047>052-055>060-089>105-032000-
NORTHEAST KENTUCKY

CITY           SKY/WX    TMP DP  RH WIND       PRES   REMARKS
LEXINGTON      CLOUDY    42  28  57 CALM      30.33F
COVINGTON      CLOUDY    41  30  65 SW8       30.33S
FRANKFORT      CLOUDY    44  26  49 NW5       30.32F
$$

KYZ054-064>069-076>088-106>120-032000-
SOUTHEAST KENTUCKY

CITY           SKY/WX    TMP DP  RH WIND       PRES   REMARKS
JACKSON        CLOUDY    40  28  62 CALM      30.31S
LONDON         CLOUDY    42  27  55 N5        30.30F
SOMERSET       CLOUDY    41  30  65 NE6       30.33F
MIDDLESBORO    CLOUDY    42  31  64 CALM      30.30F
MONTICELLO     CLOUDY    42  30  62 VRB5      30.33F
$$





USA.gov is the U.S. government's official web portal to all federal, state and local government web resources and services.